contact:dominique.lefevre@mio.osupytheas.fr, maurice.libes@osupytheas.fr, didier.mallarino@osupytheas.fr
Project:EMSO http://www.emso-fr.org/EMSO-France
Depth: 2436.0 m
Title:EMSO Ligure Ouest : Data MII capteur CSTAR
DateTime,Latitude,Longitude,Instrument_Serial,Reference_Counts,Signal_Counts,Corrected_Signal_raw_counts,Calculated_Beam_c_inverse_meters,Internal_thermistor_counts
DateTime,Latitude,Longitude,Instrument_Serial,Reference_Counts,Signal_Counts,Corrected_Signal_raw_counts,Calculated_Beam_c_inverse_meters,Internal_thermistor_counts
2023-05-03T00:01:38,42.805,6.029,CST-1368DR,4309,4717,11623,01.181,552
2023-05-03T00:04:40,42.805,6.029,CST-1368DR,4309,4717,11622,01.182,552
2023-05-03T00:07:42,42.805,6.029,CST-1368DR,4309,4717,11623,01.181,551
2023-05-03T00:10:43,42.805,6.029,CST-1368DR,4309,4716,11619,01.183,552
2023-05-03T00:13:45,42.805,6.029,CST-1368DR,4309,4717,11624,01.181,552
2023-05-03T00:16:46,42.805,6.029,CST-1368DR,4309,4715,11618,01.183,552
2023-05-03T00:19:48,42.805,6.029,CST-1368DR,4309,4716,11621,01.182,551
2023-05-03T00:22:49,42.805,6.029,CST-1368DR,4309,4716,11620,01.182,552
2023-05-03T00:25:51,42.805,6.029,CST-1368DR,4309,4716,11621,01.182,552
2023-05-03T00:28:53,42.805,6.029,CST-1368DR,4309,4716,11621,01.182,552
2023-05-03T00:31:54,42.805,6.029,CST-1368DR,4309,4717,11622,01.182,551
2023-05-03T00:34:56,42.805,6.029,CST-1368DR,4309,4719,11627,01.180,551
2023-05-03T00:37:57,42.805,6.029,CST-1368DR,4309,4716,11620,01.182,552
2023-05-03T00:40:59,42.805,6.029,CST-1368DR,4309,4724,11639,01.176,552
2023-05-03T00:44:01,42.805,6.029,CST-1368DR,4309,4716,11621,01.182,552
2023-05-03T00:47:02,42.805,6.029,CST-1368DR,4309,4717,11622,01.182,552
2023-05-03T00:50:04,42.805,6.029,CST-1368DR,4309,4716,11620,01.182,552
2023-05-03T00:53:05,42.805,6.029,CST-1368DR,4309,4713,11613,01.185,552
2023-05-03T00:56:07,42.805,6.029,CST-1368DR,4309,4715,11618,01.183,552
2023-05-03T00:59:08,42.805,6.029,CST-1368DR,4309,4716,11620,01.182,551
2023-05-03T01:02:10,42.805,6.029,CST-1368DR,4309,4715,11617,01.183,552
2023-05-03T01:05:12,42.805,6.029,CST-1368DR,4309,4714,11616,01.184,552
2023-05-03T01:08:13,42.805,6.029,CST-1368DR,4309,4716,11620,01.182,551
2023-05-03T01:11:15,42.805,6.029,CST-1368DR,4309,4714,11616,01.184,551
2023-05-03T01:14:16,42.805,6.029,CST-1368DR,4309,4716,11621,01.182,551
2023-05-03T01:17:18,42.805,6.029,CST-1368DR,4309,4715,11617,01.183,551
2023-05-03T01:20:19,42.805,6.029,CST-1368DR,4309,4716,11619,01.183,552
2023-05-03T01:23:21,42.805,6.029,CST-1368DR,4309,4715,11617,01.183,552
2023-05-03T01:26:23,42.805,6.029,CST-1368DR,4309,4714,11616,01.184,552
2023-05-03T01:29:24,42.805,6.029,CST-1368DR,4309,4714,11615,01.184,551
2023-05-03T01:32:26,42.805,6.029,CST-1368DR,4309,4715,11617,01.183,551
2023-05-03T01:35:27,42.805,6.029,CST-1368DR,4309,4711,11608,01.186,552
2023-05-03T01:38:29,42.805,6.029,CST-1368DR,4309,4713,11613,01.185,552
2023-05-03T01:41:30,42.805,6.029,CST-1368DR,4309,4713,11613,01.185,552
2023-05-03T01:44:32,42.805,6.029,CST-1368DR,4309,4713,11613,01.185,552
2023-05-03T01:47:34,42.805,6.029,CST-1368DR,4309,4713,11613,01.185,551
2023-05-03T01:50:35,42.805,6.029,CST-1368DR,4309,4712,11611,01.185,552
2023-05-03T01:53:37,42.805,6.029,CST-1368DR,4309,4716,11621,01.182,551
2023-05-03T01:56:38,42.805,6.029,CST-1368DR,4309,4715,11619,01.183,552
2023-05-03T01:59:40,42.805,6.029,CST-1368DR,4309,4714,11614,01.184,551
2023-05-03T02:02:42,42.805,6.029,CST-1368DR,4309,4707,11598,01.190,551
2023-05-03T02:05:43,42.805,6.029,CST-1368DR,4309,4715,11619,01.183,551
2023-05-03T02:08:45,42.805,6.029,CST-1368DR,4309,4716,11621,01.182,551
2023-05-03T02:11:46,42.805,6.029,CST-1368DR,4309,4714,11614,01.184,552
2023-05-03T02:14:48,42.805,6.029,CST-1368DR,4309,4715,11617,01.183,552
2023-05-03T02:17:49,42.805,6.029,CST-1368DR,4309,4714,11615,01.184,552
2023-05-03T02:20:51,42.805,6.029,CST-1368DR,4309,4716,11621,01.182,552
2023-05-03T02:23:53,42.805,6.029,CST-1368DR,4309,4712,11610,01.186,552
2023-05-03T02:26:54,42.805,6.029,CST-1368DR,4309,4713,11612,01.185,551
2023-05-03T02:29:56,42.805,6.029,CST-1368DR,4309,4713,11614,01.184,551
2023-05-03T02:32:57,42.805,6.029,CST-1368DR,4309,4712,11611,01.185,551
2023-05-03T02:35:59,42.805,6.029,CST-1368DR,4309,4710,11606,01.187,551
2023-05-03T02:39:00,42.805,6.029,CST-1368DR,4309,4719,11628,01.180,552
2023-05-03T02:42:02,42.805,6.029,CST-1368DR,4309,4711,11609,01.186,551
2023-05-03T02:45:04,42.805,6.029,CST-1368DR,4309,4710,11606,01.187,552
2023-05-03T02:48:05,42.805,6.029,CST-1368DR,4309,4711,11609,01.186,552
2023-05-03T02:51:07,42.805,6.029,CST-1368DR,4309,4706,11595,01.191,552
2023-05-03T02:54:08,42.805,6.029,CST-1368DR,4309,4710,11605,01.187,551
2023-05-03T02:57:10,42.805,6.029,CST-1368DR,4309,4711,11608,01.186,551
2023-05-03T03:00:12,42.805,6.029,CST-1368DR,4309,4714,11616,01.184,552
2023-05-03T03:03:13,42.805,6.029,CST-1368DR,4309,4713,11613,01.185,551
2023-05-03T03:06:15,42.805,6.029,CST-1368DR,4309,4714,11615,01.184,551
2023-05-03T03:09:16,42.805,6.029,CST-1368DR,4308,4711,11610,01.186,552
2023-05-03T03:12:18,42.805,6.029,CST-1368DR,4308,4712,11613,01.185,551
2023-05-03T03:15:19,42.805,6.029,CST-1368DR,4309,4713,11613,01.185,552
2023-05-03T03:18:21,42.805,6.029,CST-1368DR,4308,4712,11614,01.184,552
2023-05-03T03:21:23,42.805,6.029,CST-1368DR,4308,4711,11610,01.186,552
2023-05-03T03:24:24,42.805,6.029,CST-1368DR,4308,4710,11607,01.187,551
2023-05-03T03:27:26,42.805,6.029,CST-1368DR,4308,4710,11609,01.186,552
2023-05-03T03:30:27,42.805,6.029,CST-1368DR,4309,4710,11605,01.187,551
2023-05-03T03:33:29,42.805,6.029,CST-1368DR,4309,4711,11609,01.186,552
2023-05-03T03:36:30,42.805,6.029,CST-1368DR,4309,4712,11610,01.186,552
2023-05-03T03:39:32,42.805,6.029,CST-1368DR,4309,4710,11605,01.187,552
2023-05-03T03:42:34,42.805,6.029,CST-1368DR,4308,4710,11609,01.186,552
2023-05-03T03:45:35,42.805,6.029,CST-1368DR,4308,4710,11609,01.186,552
2023-05-03T03:48:37,42.805,6.029,CST-1368DR,4308,4706,11599,01.190,551
2023-05-03T03:51:38,42.805,6.029,CST-1368DR,4308,4711,11611,01.185,552
2023-05-03T03:54:40,42.805,6.029,CST-1368DR,4309,4711,11608,01.186,551
2023-05-03T03:57:42,42.805,6.029,CST-1368DR,4308,4712,11613,01.185,552
2023-05-03T04:00:43,42.805,6.029,CST-1368DR,4308,4713,11616,01.184,552
2023-05-03T04:03:45,42.805,6.029,CST-1368DR,4308,4711,11610,01.186,551
2023-05-03T04:06:46,42.805,6.029,CST-1368DR,4308,4713,11615,01.184,552
2023-05-03T04:09:48,42.805,6.029,CST-1368DR,4308,4711,11611,01.185,552
2023-05-03T04:12:49,42.805,6.029,CST-1368DR,4308,4708,11603,01.188,552
2023-05-03T04:15:51,42.805,6.029,CST-1368DR,4308,4709,11605,01.187,552
2023-05-03T04:18:53,42.805,6.029,CST-1368DR,4308,4707,11600,01.189,552
2023-05-03T04:21:54,42.805,6.029,CST-1368DR,4308,4707,11600,01.189,551
2023-05-03T04:24:56,42.805,6.029,CST-1368DR,4308,4711,11610,01.186,552
2023-05-03T04:27:57,42.805,6.029,CST-1368DR,4308,4714,11617,01.183,552
2023-05-03T04:30:59,42.805,6.029,CST-1368DR,4308,4711,11611,01.185,552
2023-05-03T04:34:00,42.805,6.029,CST-1368DR,4308,4710,11608,01.186,552
2023-05-03T04:37:02,42.805,6.029,CST-1368DR,4308,4713,11615,01.184,552
2023-05-03T04:40:04,42.805,6.029,CST-1368DR,4308,4712,11614,01.184,551
2023-05-03T04:43:05,42.805,6.029,CST-1368DR,4308,4712,11613,01.185,551
2023-05-03T04:46:07,42.805,6.029,CST-1368DR,4308,4709,11605,01.187,551
2023-05-03T04:49:08,42.805,6.029,CST-1368DR,4308,4709,11605,01.187,551
2023-05-03T04:52:10,42.805,6.029,CST-1368DR,4308,4708,11603,01.188,551
2023-05-03T04:55:12,42.805,6.029,CST-1368DR,4308,4709,11605,01.187,551
2023-05-03T04:58:13,42.805,6.029,CST-1368DR,4308,4708,11604,01.188,552
2023-05-03T05:01:15,42.805,6.029,CST-1368DR,4308,4709,11606,01.187,552
2023-05-03T05:04:16,42.805,6.029,CST-1368DR,4308,4707,11600,01.189,552
2023-05-03T05:07:18,42.805,6.029,CST-1368DR,4308,4707,11600,01.189,551
2023-05-03T05:10:19,42.805,6.029,CST-1368DR,4308,4708,11603,01.188,552
2023-05-03T05:13:21,42.805,6.029,CST-1368DR,4308,4710,11608,01.186,551
2023-05-03T05:16:23,42.805,6.029,CST-1368DR,4308,4708,11604,01.188,551
2023-05-03T05:19:24,42.805,6.029,CST-1368DR,4308,4709,11606,01.187,551
2023-05-03T05:22:26,42.805,6.029,CST-1368DR,4308,4707,11600,01.189,551
2023-05-03T05:25:27,42.805,6.029,CST-1368DR,4308,4709,11605,01.187,551
2023-05-03T05:28:29,42.805,6.029,CST-1368DR,4308,4706,11598,01.190,552
2023-05-03T05:31:31,42.805,6.029,CST-1368DR,4308,4708,11604,01.188,551
2023-05-03T05:34:32,42.805,6.029,CST-1368DR,4308,4707,11602,01.188,551
2023-05-03T05:37:34,42.805,6.029,CST-1368DR,4308,4709,11605,01.187,551
2023-05-03T05:40:35,42.805,6.029,CST-1368DR,4308,4708,11603,01.188,551
2023-05-03T05:43:37,42.805,6.029,CST-1368DR,4308,4706,11599,01.190,552
2023-05-03T05:46:38,42.805,6.029,CST-1368DR,4308,4710,11607,01.187,551
2023-05-03T05:49:40,42.805,6.029,CST-1368DR,4308,4708,11604,01.188,552
2023-05-03T05:52:42,42.805,6.029,CST-1368DR,4308,4709,11607,01.187,552
2023-05-03T05:55:43,42.805,6.029,CST-1368DR,4308,4707,11600,01.189,552
2023-05-03T05:58:45,42.805,6.029,CST-1368DR,4308,4706,11599,01.190,552
2023-05-03T06:01:46,42.805,6.029,CST-1368DR,4308,4709,11606,01.187,551
2023-05-03T06:04:48,42.805,6.029,CST-1368DR,4308,4707,11602,01.188,551
2023-05-03T06:07:49,42.805,6.029,CST-1368DR,4308,4712,11613,01.185,551
2023-05-03T06:10:51,42.805,6.029,CST-1368DR,4308,4710,11608,01.186,551
2023-05-03T06:13:53,42.805,6.029,CST-1368DR,4308,4705,11595,01.191,551
2023-05-03T06:16:54,42.805,6.029,CST-1368DR,4308,4704,11593,01.192,552
2023-05-03T06:19:56,42.805,6.029,CST-1368DR,4308,4709,11605,01.187,552
2023-05-03T06:22:57,42.805,6.029,CST-1368DR,4308,4708,11604,01.188,552
2023-05-03T06:25:59,42.805,6.029,CST-1368DR,4308,4705,11597,01.190,552
2023-05-03T06:29:00,42.805,6.029,CST-1368DR,4308,4708,11603,01.188,551
2023-05-03T06:32:02,42.805,6.029,CST-1368DR,4308,4707,11601,01.189,552
2023-05-03T06:35:04,42.805,6.029,CST-1368DR,4308,4709,11606,01.187,552
2023-05-03T06:38:05,42.805,6.029,CST-1368DR,4308,4709,11605,01.187,552
2023-05-03T06:41:07,42.805,6.029,CST-1368DR,4308,4708,11604,01.188,552
2023-05-03T06:44:08,42.805,6.029,CST-1368DR,4308,4709,11605,01.187,551
2023-05-03T06:47:10,42.805,6.029,CST-1368DR,4308,4708,11603,01.188,552
2023-05-03T06:50:12,42.805,6.029,CST-1368DR,4308,4709,11607,01.187,552
2023-05-03T06:53:13,42.805,6.029,CST-1368DR,4308,4711,11610,01.186,551
2023-05-03T06:56:15,42.805,6.029,CST-1368DR,4308,4708,11604,01.188,552
2023-05-03T06:59:16,42.805,6.029,CST-1368DR,4308,4710,11609,01.186,552
2023-05-03T07:02:18,42.805,6.029,CST-1368DR,4308,4709,11606,01.187,551
2023-05-03T07:05:19,42.805,6.029,CST-1368DR,4308,4711,11611,01.185,552
2023-05-03T07:08:21,42.805,6.029,CST-1368DR,4308,4714,11618,01.183,552
2023-05-03T07:11:23,42.805,6.029,CST-1368DR,4308,4708,11603,01.188,552
2023-05-03T07:14:24,42.805,6.029,CST-1368DR,4308,4716,11624,01.181,551
2023-05-03T07:17:26,42.805,6.029,CST-1368DR,4308,4713,11615,01.184,552
2023-05-03T07:20:27,42.805,6.029,CST-1368DR,4308,4713,11615,01.184,552
2023-05-03T07:23:29,42.805,6.029,CST-1368DR,4308,4712,11613,01.185,552
2023-05-03T07:26:30,42.805,6.029,CST-1368DR,4308,4710,11607,01.187,551
2023-05-03T07:29:32,42.805,6.029,CST-1368DR,4308,4711,11611,01.185,551
2023-05-03T07:32:34,42.805,6.029,CST-1368DR,4308,4710,11609,01.186,551
2023-05-03T07:35:35,42.805,6.029,CST-1368DR,4308,4710,11608,01.186,552
2023-05-03T07:38:37,42.805,6.029,CST-1368DR,4308,4709,11605,01.187,552
2023-05-03T07:41:38,42.805,6.029,CST-1368DR,4308,4710,11608,01.186,552
2023-05-03T07:44:40,42.805,6.029,CST-1368DR,4308,4710,11607,01.187,552
2023-05-03T07:47:42,42.805,6.029,CST-1368DR,4308,4712,11613,01.185,552
2023-05-03T07:50:43,42.805,6.029,CST-1368DR,4308,4711,11611,01.185,552
2023-05-03T07:53:45,42.805,6.029,CST-1368DR,4308,4710,11608,01.186,551
2023-05-03T07:56:46,42.805,6.029,CST-1368DR,4308,4712,11612,01.185,552
2023-05-03T07:59:48,42.805,6.029,CST-1368DR,4308,4712,11613,01.185,552
2023-05-03T08:02:49,42.805,6.029,CST-1368DR,4308,4712,11612,01.185,552
2023-05-03T08:05:51,42.805,6.029,CST-1368DR,4308,4710,11608,01.186,552
2023-05-03T08:08:53,42.805,6.029,CST-1368DR,4308,4709,11606,01.187,552
2023-05-03T08:11:54,42.805,6.029,CST-1368DR,4308,4708,11604,01.188,551
2023-05-03T08:14:56,42.805,6.029,CST-1368DR,4308,4707,11600,01.189,552
2023-05-03T08:17:57,42.805,6.029,CST-1368DR,4308,4707,11600,01.189,552
2023-05-03T08:20:59,42.805,6.029,CST-1368DR,4308,4709,11607,01.187,552
2023-05-03T08:24:00,42.805,6.029,CST-1368DR,4308,4707,11601,01.189,552
2023-05-03T08:27:02,42.805,6.029,CST-1368DR,4308,4709,11607,01.187,552
2023-05-03T08:30:04,42.805,6.029,CST-1368DR,4308,4708,11603,01.188,551
2023-05-03T08:33:05,42.805,6.029,CST-1368DR,4308,4708,11603,01.188,551
2023-05-03T08:36:07,42.805,6.029,CST-1368DR,4308,4707,11600,01.189,551
2023-05-03T08:39:09,42.805,6.029,CST-1368DR,4308,4706,11598,01.190,552
2023-05-03T08:42:10,42.805,6.029,CST-1368DR,4308,4706,11599,01.190,552
2023-05-03T08:45:12,42.805,6.029,CST-1368DR,4308,4708,11603,01.188,552
2023-05-03T08:48:13,42.805,6.029,CST-1368DR,4308,4711,11611,01.185,551
2023-05-03T08:51:15,42.805,6.029,CST-1368DR,4308,4709,11605,01.187,552
2023-05-03T08:54:16,42.805,6.029,CST-1368DR,4308,4709,11606,01.187,552
2023-05-03T08:57:18,42.805,6.029,CST-1368DR,4308,4709,11605,01.187,551
2023-05-03T09:00:20,42.805,6.029,CST-1368DR,4308,4709,11607,01.187,552
2023-05-03T09:03:21,42.805,6.029,CST-1368DR,4308,4710,11608,01.186,551
2023-05-03T09:06:23,42.805,6.029,CST-1368DR,4308,4707,11600,01.189,551
2023-05-03T09:09:24,42.805,6.029,CST-1368DR,4308,4712,11612,01.185,551
2023-05-03T09:12:26,42.805,6.029,CST-1368DR,4308,4711,11611,01.185,551
2023-05-03T09:15:27,42.805,6.029,CST-1368DR,4308,4709,11606,01.187,552
2023-05-03T09:18:29,42.805,6.029,CST-1368DR,4308,4710,11607,01.187,552
2023-05-03T09:21:31,42.805,6.029,CST-1368DR,4308,4709,11605,01.187,551
2023-05-03T09:24:32,42.805,6.029,CST-1368DR,4308,4711,11610,01.186,552
2023-05-03T09:27:34,42.805,6.029,CST-1368DR,4308,4710,11608,01.186,552
2023-05-03T09:30:35,42.805,6.029,CST-1368DR,4308,4710,11607,01.187,552
2023-05-03T09:33:37,42.805,6.029,CST-1368DR,4308,4709,11607,01.187,552
2023-05-03T09:36:39,42.805,6.029,CST-1368DR,4308,4710,11608,01.186,551
2023-05-03T09:39:40,42.805,6.029,CST-1368DR,4308,4706,11599,01.190,552
2023-05-03T09:42:42,42.805,6.029,CST-1368DR,4308,4713,11615,01.184,552
2023-05-03T09:45:43,42.805,6.029,CST-1368DR,4308,4711,11611,01.185,551
2023-05-03T09:48:45,42.805,6.029,CST-1368DR,4308,4710,11608,01.186,552
2023-05-03T09:51:46,42.805,6.029,CST-1368DR,4308,4710,11607,01.187,552
2023-05-03T09:54:48,42.805,6.029,CST-1368DR,4308,4707,11601,01.189,551
2023-05-03T09:57:50,42.805,6.029,CST-1368DR,4308,4711,11610,01.186,552
2023-05-03T10:00:51,42.805,6.029,CST-1368DR,4308,4711,11611,01.185,552
2023-05-03T10:03:53,42.805,6.029,CST-1368DR,4308,4713,11615,01.184,552
2023-05-03T10:06:54,42.805,6.029,CST-1368DR,4308,4712,11613,01.185,551
2023-05-03T10:09:56,42.805,6.029,CST-1368DR,4308,4708,11603,01.188,551
2023-05-03T10:12:57,42.805,6.029,CST-1368DR,4308,4712,11612,01.185,551
2023-05-03T10:15:59,42.805,6.029,CST-1368DR,4308,4713,11615,01.184,551
2023-05-03T10:19:01,42.805,6.029,CST-1368DR,4308,4710,11608,01.186,551
2023-05-03T10:22:02,42.805,6.029,CST-1368DR,4308,4710,11607,01.187,551
2023-05-03T10:25:04,42.805,6.029,CST-1368DR,4308,4708,11603,01.188,552
2023-05-03T10:28:05,42.805,6.029,CST-1368DR,4308,4709,11605,01.187,551
2023-05-03T10:31:07,42.805,6.029,CST-1368DR,4308,4710,11607,01.187,552
2023-05-03T10:34:09,42.805,6.029,CST-1368DR,4308,4711,11610,01.186,551
2023-05-03T10:37:10,42.805,6.029,CST-1368DR,4308,4713,11616,01.184,551
2023-05-03T10:40:12,42.805,6.029,CST-1368DR,4308,4713,11615,01.184,551
2023-05-03T10:43:13,42.805,6.029,CST-1368DR,4308,4713,11615,01.184,551
2023-05-03T10:46:15,42.805,6.029,CST-1368DR,4308,4715,11620,01.182,551
2023-05-03T10:49:16,42.805,6.029,CST-1368DR,4308,4706,11599,01.190,551
2023-05-03T10:52:18,42.805,6.029,CST-1368DR,4308,4717,11624,01.181,552
2023-05-03T10:55:20,42.805,6.029,CST-1368DR,4308,4712,11614,01.184,551
2023-05-03T10:58:21,42.805,6.029,CST-1368DR,4308,4712,11612,01.185,552
2023-05-03T11:01:23,42.805,6.029,CST-1368DR,4308,4711,11610,01.186,551
2023-05-03T11:04:24,42.805,6.029,CST-1368DR,4308,4711,11610,01.186,552
2023-05-03T11:07:26,42.805,6.029,CST-1368DR,4308,4711,11610,01.186,551
2023-05-03T11:10:27,42.805,6.029,CST-1368DR,4308,4711,11610,01.186,552
2023-05-03T11:13:29,42.805,6.029,CST-1368DR,4308,4712,11613,01.185,552
2023-05-03T11:16:31,42.805,6.029,CST-1368DR,4308,4712,11614,01.184,551
2023-05-03T11:19:32,42.805,6.029,CST-1368DR,4308,4711,11611,01.185,552
2023-05-03T11:22:34,42.805,6.029,CST-1368DR,4308,4709,11605,01.187,552
2023-05-03T11:25:35,42.805,6.029,CST-1368DR,4308,4712,11612,01.185,552
2023-05-03T11:28:37,42.805,6.029,CST-1368DR,4308,4711,11611,01.185,551
2023-05-03T11:31:39,42.805,6.029,CST-1368DR,4308,4709,11605,01.187,551
2023-05-03T11:34:40,42.805,6.029,CST-1368DR,4308,4708,11603,01.188,551
2023-05-03T11:37:42,42.805,6.029,CST-1368DR,4308,4708,11603,01.188,551
2023-05-03T11:40:43,42.805,6.029,CST-1368DR,4308,4710,11608,01.186,551
2023-05-03T11:43:45,42.805,6.029,CST-1368DR,4308,4710,11608,01.186,552
2023-05-03T11:46:46,42.805,6.029,CST-1368DR,4308,4710,11607,01.187,551
2023-05-03T11:49:48,42.805,6.029,CST-1368DR,4308,4714,11618,01.183,552
2023-05-03T11:52:50,42.805,6.029,CST-1368DR,4308,4712,11612,01.185,551
2023-05-03T11:55:51,42.805,6.029,CST-1368DR,4308,4711,11611,01.185,551
2023-05-03T11:58:53,42.805,6.029,CST-1368DR,4308,4709,11607,01.187,552
2023-05-03T12:01:54,42.805,6.029,CST-1368DR,4308,4707,11602,01.188,551
2023-05-03T12:04:56,42.805,6.029,CST-1368DR,4308,4709,11606,01.187,551
2023-05-03T12:07:57,42.805,6.029,CST-1368DR,4308,4709,11606,01.187,551
2023-05-03T12:10:59,42.805,6.029,CST-1368DR,4308,4710,11608,01.186,551
2023-05-03T12:14:01,42.805,6.029,CST-1368DR,4308,4708,11604,01.188,551
2023-05-03T12:17:02,42.805,6.029,CST-1368DR,4308,4709,11606,01.187,552
2023-05-03T12:20:04,42.805,6.029,CST-1368DR,4308,4709,11606,01.187,551
2023-05-03T12:23:05,42.805,6.029,CST-1368DR,4308,4708,11603,01.188,551
2023-05-03T12:26:07,42.805,6.029,CST-1368DR,4308,4707,11602,01.188,551
2023-05-03T12:29:09,42.805,6.029,CST-1368DR,4308,4710,11608,01.186,552
2023-05-03T12:32:10,42.805,6.029,CST-1368DR,4308,4708,11603,01.188,552
2023-05-03T12:35:12,42.805,6.029,CST-1368DR,4308,4709,11605,01.187,551
2023-05-03T12:38:13,42.805,6.029,CST-1368DR,4308,4709,11606,01.187,552
2023-05-03T12:41:15,42.805,6.029,CST-1368DR,4308,4710,11607,01.187,551
2023-05-03T12:44:16,42.805,6.029,CST-1368DR,4308,4710,11608,01.186,552
2023-05-03T12:47:18,42.805,6.029,CST-1368DR,4308,4708,11603,01.188,552
2023-05-03T12:50:20,42.805,6.029,CST-1368DR,4308,4710,11608,01.186,552
2023-05-03T12:53:21,42.805,6.029,CST-1368DR,4308,4707,11601,01.189,551
2023-05-03T12:56:23,42.805,6.029,CST-1368DR,4308,4712,11613,01.185,551
2023-05-03T12:59:24,42.805,6.029,CST-1368DR,4308,4709,11606,01.187,552
2023-05-03T13:02:26,42.805,6.029,CST-1368DR,4308,4709,11605,01.187,552
2023-05-03T13:05:27,42.805,6.029,CST-1368DR,4308,4710,11607,01.187,551
2023-05-03T13:08:29,42.805,6.029,CST-1368DR,4308,4709,11606,01.187,551
2023-05-03T13:11:31,42.805,6.029,CST-1368DR,4308,4709,11605,01.187,552
2023-05-03T13:14:32,42.805,6.029,CST-1368DR,4308,4709,11605,01.187,551
2023-05-03T13:17:34,42.805,6.029,CST-1368DR,4308,4709,11605,01.187,552
2023-05-03T13:20:35,42.805,6.029,CST-1368DR,4308,4712,11612,01.185,552
2023-05-03T13:23:37,42.805,6.029,CST-1368DR,4308,4710,11609,01.186,552
2023-05-03T13:26:39,42.805,6.029,CST-1368DR,4308,4711,11611,01.185,551
2023-05-03T13:29:40,42.805,6.029,CST-1368DR,4308,4712,11613,01.185,552
2023-05-03T13:32:42,42.805,6.029,CST-1368DR,4308,4714,11617,01.183,552
2023-05-03T13:35:43,42.805,6.029,CST-1368DR,4308,4720,11633,01.178,551
2023-05-03T13:38:45,42.805,6.029,CST-1368DR,4308,4716,11624,01.181,551
2023-05-03T13:41:46,42.805,6.029,CST-1368DR,4308,4709,11607,01.187,552
2023-05-03T13:44:48,42.805,6.029,CST-1368DR,4308,4715,11621,01.182,552
2023-05-03T13:47:50,42.805,6.029,CST-1368DR,4308,4713,11615,01.184,552
2023-05-03T13:50:51,42.805,6.029,CST-1368DR,4308,4710,11609,01.186,551
2023-05-03T13:53:53,42.805,6.029,CST-1368DR,4308,4711,11611,01.185,551
2023-05-03T13:56:54,42.805,6.029,CST-1368DR,4308,4714,11617,01.183,552
2023-05-03T13:59:56,42.805,6.029,CST-1368DR,4308,4712,11614,01.184,552
2023-05-03T14:02:57,42.805,6.029,CST-1368DR,4308,4715,11621,01.182,551
2023-05-03T14:05:59,42.805,6.029,CST-1368DR,4308,4712,11614,01.184,552
2023-05-03T14:09:01,42.805,6.029,CST-1368DR,4308,4712,11614,01.184,551
2023-05-03T14:12:02,42.805,6.029,CST-1368DR,4308,4713,11615,01.184,552
2023-05-03T14:15:04,42.805,6.029,CST-1368DR,4308,4712,11613,01.185,551
2023-05-03T14:18:05,42.805,6.029,CST-1368DR,4308,4713,11615,01.184,552
2023-05-03T14:21:07,42.805,6.029,CST-1368DR,4308,4712,11613,01.185,551
2023-05-03T14:24:09,42.805,6.029,CST-1368DR,4308,4712,11613,01.185,551
2023-05-03T14:27:10,42.805,6.029,CST-1368DR,4308,4713,11615,01.184,551
2023-05-03T14:30:12,42.805,6.029,CST-1368DR,4308,4713,11615,01.184,551
2023-05-03T14:33:13,42.805,6.029,CST-1368DR,4308,4712,11613,01.185,552
2023-05-03T14:36:15,42.805,6.029,CST-1368DR,4308,4713,11615,01.184,552
2023-05-03T14:39:16,42.805,6.029,CST-1368DR,4308,4709,11606,01.187,551
2023-05-03T14:42:18,42.805,6.029,CST-1368DR,4308,4710,11609,01.186,552
2023-05-03T14:45:20,42.805,6.029,CST-1368DR,4308,4713,11616,01.184,552
2023-05-03T14:48:21,42.805,6.029,CST-1368DR,4308,4713,11616,01.184,552
2023-05-03T14:51:23,42.805,6.029,CST-1368DR,4308,4712,11613,01.185,551
2023-05-03T14:54:24,42.805,6.029,CST-1368DR,4308,4711,11611,01.185,551
2023-05-03T14:57:26,42.805,6.029,CST-1368DR,4308,4713,11615,01.184,552
2023-05-03T15:00:27,42.805,6.029,CST-1368DR,4308,4714,11618,01.183,551
2023-05-03T15:03:29,42.805,6.029,CST-1368DR,4308,4714,11618,01.183,552
2023-05-03T15:06:31,42.805,6.029,CST-1368DR,4308,4714,11617,01.183,552
2023-05-03T15:09:32,42.805,6.029,CST-1368DR,4308,4715,11621,01.182,551
2023-05-03T15:12:34,42.805,6.029,CST-1368DR,4308,4716,11622,01.182,552
2023-05-03T15:15:35,42.805,6.029,CST-1368DR,4308,4712,11613,01.185,551
2023-05-03T15:18:37,42.805,6.029,CST-1368DR,4308,4714,11618,01.183,551
2023-05-03T15:21:39,42.805,6.029,CST-1368DR,4308,4714,11617,01.183,551
2023-05-03T15:24:40,42.805,6.029,CST-1368DR,4308,4713,11616,01.184,552
2023-05-03T15:27:42,42.805,6.029,CST-1368DR,4308,4713,11615,01.184,551
2023-05-03T15:30:43,42.805,6.029,CST-1368DR,4308,4712,11613,01.185,551
2023-05-03T15:33:45,42.805,6.029,CST-1368DR,4308,4713,11615,01.184,552
2023-05-03T15:36:46,42.805,6.029,CST-1368DR,4308,4713,11615,01.184,551
2023-05-03T15:39:48,42.805,6.029,CST-1368DR,4308,4712,11614,01.184,551
2023-05-03T15:42:50,42.805,6.029,CST-1368DR,4308,4709,11607,01.187,552
2023-05-03T15:45:51,42.805,6.029,CST-1368DR,4308,4713,11615,01.184,552
2023-05-03T15:48:53,42.805,6.029,CST-1368DR,4308,4713,11615,01.184,552
2023-05-03T15:51:54,42.805,6.029,CST-1368DR,4308,4713,11615,01.184,551
2023-05-03T15:54:56,42.805,6.029,CST-1368DR,4308,4712,11613,01.185,552
2023-05-03T15:57:57,42.805,6.029,CST-1368DR,4308,4712,11613,01.185,551
2023-05-03T16:00:59,42.805,6.029,CST-1368DR,4308,4712,11613,01.185,551
2023-05-03T16:04:01,42.805,6.029,CST-1368DR,4308,4712,11613,01.185,552
2023-05-03T16:07:02,42.805,6.029,CST-1368DR,4308,4714,11618,01.183,552
2023-05-03T16:10:04,42.805,6.029,CST-1368DR,4308,4711,11610,01.186,552
2023-05-03T16:13:05,42.805,6.029,CST-1368DR,4308,4714,11617,01.183,552
2023-05-03T16:16:07,42.805,6.029,CST-1368DR,4308,4717,11625,01.181,552
2023-05-03T16:19:08,42.805,6.029,CST-1368DR,4308,4714,11617,01.183,552
2023-05-03T16:22:10,42.805,6.029,CST-1368DR,4308,4713,11615,01.184,552
2023-05-03T16:25:12,42.805,6.029,CST-1368DR,4308,4713,11615,01.184,551
2023-05-03T16:28:13,42.805,6.029,CST-1368DR,4308,4709,11605,01.187,551
2023-05-03T16:31:17,42.805,6.029,CST-1368DR,4308,4711,11611,01.185,551
2023-05-03T16:34:18,42.805,6.029,CST-1368DR,4308,4711,11611,01.185,551
2023-05-03T16:37:20,42.805,6.029,CST-1368DR,4308,4711,11611,01.185,552